sat.trackr.live / text

‹ back to catalog

STARLINK-35507

NORAD 66327 · 2025-253J

PAYLOAD ACTIVE UNKNOWN

§ Identity

Operator
Country
US
Launch date
2025-11-06
Launch site
AFETR
Launch vehicle
Mass (kg)
RCS (m²)

Purposes: comms

External: N2YO · Heavens-Above · Gunter

§ Orbital elements

Epoch: 2026-09-20T12:25:54.187392Z

Period
94.27 min
Inclination
43.0000°
Eccentricity
0.0000395
Mean motion
15.27582856 rev/d
Perigee alt
482.8 km
Apogee alt
483.3 km
Semi-major
6,861.2 km
B*
3.3414e-4
RAAN
191.9864°
Arg perigee
8.4995°
Mean anomaly
351.5864°
Rev number
5,004

§ Raw data

STARLINK-355071 66327U 25253J   26263.51798828  .00008945  00000+0  33414-3 0  99912 66327  43.0000 191.9864 0000395   8.4995 351.5864 15.27582856 50043

JSON: /api/v1/satellites/66327 · /tle

For live sub-satellite position, see the globe view (requires WebGL).

§ Visibility from observer

Set your observer location to see the next 7 days of passes ≥ 10°. The values pass through the URL so the page stays shareable.

No JS? Fill the form by hand. The geolocation button needs JavaScript.